Location: Bakhuizen
(52.8696°N, 5.4575°E)
Time: 09:06:32
(UTC+00:00)

Cosmos 1536 - Pass Details

Date: 11 May 2021
Orbit: 539 x 558 km, 82.5° (Epoch: 15 June)

Event Time Altitude Azimuth Distance (km) Brightness Sun altitude
Rises 21:01:38 0° 352° (N) 2,752 7.5 -11.7°
Reaches altitude 10° 21:03:53 10° 359° (N) 1,849 6.4 -11.9°
Maximum altitude 21:07:50 47° 74° (ENE) 744 3.3 -12.3°
Enters shadow 21:10:22 20° 141° (SE) 1,319 4.1 -12.5°
